Theta_e
309 309 308 308 309 310 310 310 311 310 310 310 310 310 309 309 306 304 304 306 310 308 304 306 306 307 308 313 318 324 330 331 329 329 329 327 329 329 331 332 335 335 334 332 332
310 309 308 309 308 308 310 310 310 308 310 310 309 309 309 306 305 304 306 311 309 305 302 304 305 307 306 312 316 322 327 326 324 325 327 326 328 328 330 334 337 338 332 332 330
309 309 309 307 307 307 309 309 308 309 309 309 309 309 308 304 304 301 309 310 305 300 302 306 308 308 308 307 310 316 324 322 322 323 325 327 326 327 330 331 332 337 336 332 330
309 309 308 307 306 306 307 308 308 308 309 309 308 309 305 304 304 301 305 300 299 302 304 307 308 308 308 308 308 309 312 319 320 322 324 328 327 328 328 330 330 333 334 333 332
308 307 307 306 305 305 304 305 306 307 307 308 308 308 305 305 304 301 299 299 298 303 305 307 309 308 309 307 307 307 307 308 313 315 318 321 327 329 328 327 327 330 332 334 333
306 305 304 304 303 303 303 303 303 303 305 308 308 307 305 306 301 300 299 298 299 303 303 305 308 309 309 309 310 308 309 308 308 310 314 317 323 325 327 327 326 329 332 333 333
304 303 302 302 301 301 302 302 302 302 303 307 308 307 305 306 302 300 299 300 301 303 303 302 302 306 306 307 307 308 310 309 309 307 309 314 320 325 324 326 328 328 329 332 333
302 301 300 301 302 301 301 300 300 301 302 307 307 306 305 303 302 299 300 301 301 302 303 303 302 304 307 306 307 306 306 308 307 308 306 314 322 322 322 324 327 328 328 331 333
300 301 302 302 302 301 300 300 300 300 306 307 306 304 304 300 300 300 299 301 302 302 302 302 304 304 305 307 307 305 307 305 307 307 308 311 316 317 319 323 325 327 328 329 332
302 302 302 302 302 302 301 301 299 300 302 303 303 304 303 300 299 299 300 301 302 302 303 304 305 305 304 306 307 305 305 305 306 307 308 308 312 316 319 322 325 325 326 329 330
302 302 302 302 302 302 301 299 301 301 301 301 300 300 300 299 299 301 300 301 302 303 305 305 305 305 302 304 303 302 302 302 302 304 309 313 313 310 315 318 324 326 326 326 328
302 302 302 301 302 301 299 301 300 301 301 300 300 300 299 299 301 300 301 303 304 304 304 305 306 303 303 302 302 302 303 304 303 304 305 305 310 314 315 314 320 324 327 327 328
302 300 300 299 301 301 300 299 298 299 301 300 299 299 300 300 299 298 302 303 304 304 304 306 304 302 303 304 304 304 304 304 304 304 304 306 311 312 315 320 319 320 323 326 327
300 300 299 299 301 300 301 298 300 299 303 300 298 300 300 298 299 298 301 302 304 304 305 306 305 305 305 305 304 307 304 303 304 306 307 306 311 312 314 320 320 323 323 325 326
299 299 299 299 300 300 298 299 300 296 302 296 298 297 298 298 298 299 302 302 302 302 304 305 305 305 308 305 305 306 305 304 304 307 307 307 312 312 314 317 319 321 324 326 327
299 299 299 300 298 298 298 298 296 302 300 297 297 298 299 298 298 298 300 300 301 304 305 306 304 304 305 305 305 305 306 306 307 308 309 307 307 311 318 319 319 320 322 324 326
299 299 300 300 300 299 298 295 302 302 295 299 298 298 297 297 297 298 297 299 303 305 303 302 303 307 306 309 308 308 306 305 308 311 308 306 308 310 313 317 317 318 319 323 326
298 298 299 299 299 298 295 301 298 293 294 296 298 297 296 296 297 297 298 299 303 303 303 303 303 307 304 308 308 308 307 306 306 310 309 307 312 315 312 312 319 317 318 322 325
298 299 300 298 298 297 299 301 298 295 296 298 298 298 297 296 297 297 298 298 300 301 302 301 302 303 305 305 309 308 309 306 312 317 315 321 321 319 321 318 318 322 323 322 323
299 298 299 296 297 295 303 299 295 293 296 297 298 296 298 298 298 298 297 298 300 299 298 301 303 302 306 304 307 307 306 308 313 316 322 321 323 324 324 323 322 323 325 325 325
298 300 297 296 294 298 300 296 292 295 296 297 297 298 298 299 298 298 298 298 298 298 298 300 303 304 306 310 311 311 309 310 308 311 321 323 322 320 320 320 321 321 324 326 329
296 303 296 295 301 287 297 292 294 297 297 298 297 298 298 298 298 297 298 298 298 297 300 299 301 304 307 306 307 312 313 311 317 323 320 323 325 316 318 317 320 321 325 326 327
298 297 294 292 300 297 292 293 295 297 297 298 298 299 297 297 297 295 297 297 297 296 300 299 301 307 307 310 308 311 313 314 314 316 324 327 325 313 314 316 321 319 315 312 309
296 300 295 293 291 295 295 293 295 295 296 297 298 297 297 294 295 298 296 296 295 297 297 297 301 306 305 306 305 309 311 315 319 323 322 319 319 313 313 312 313 311 310 308 306
291 292 289 298 296 295 293 293 296 297 297 297 297 295 296 295 294 293 294 294 295 297 296 297 298 302 301 302 308 308 310 311 313 312 317 316 313 310 311 310 309 308 307 306 305
296 294 289 289 290 294 294 294 296 297 296 296 295 295 294 294 294 293 294 295 296 296 296 296 299 299 302 309 308 307 304 307 306 305 311 311 310 304 304 308 308 308 306 305 305
290 289 295 289 293 295 295 295 295 296 294 296 296 294 293 293 293 295 295 295 295 296 296 297 297 300 304 306 306 310 303 305 306 302 305 308 306 303 302 302 305 306 305 304 303
Wind_Speed
8 7 10 10 10 11 11 11 12 12 13 14 14 15 17 19 24 16 4 3 7 10 13 11 9 8 7 7 12 9 10 19 27 24 21 17 18 11 4 9 6 7 2 2 23
7 7 5 8 8 9 11 11 11 12 12 13 14 15 16 20 19 10 5 4 9 12 12 13 11 9 4 5 6 11 14 25 21 18 16 22 20 15 12 12 9 8 4 13 21
5 4 5 7 7 7 9 11 10 11 11 13 14 14 16 18 8 1 2 5 10 14 10 7 5 4 5 7 13 10 24 18 16 21 11 20 24 21 15 18 15 14 14 15 20
1 3 5 6 7 8 8 10 10 10 12 13 14 14 17 6 6 2 4 8 9 11 6 3 2 4 4 8 7 18 21 13 11 16 13 16 19 23 22 15 5 7 16 19 19
6 5 7 7 6 7 8 9 9 9 11 11 12 13 7 6 8 5 7 9 14 6 3 3 5 6 8 5 10 17 17 20 16 16 16 15 20 18 19 21 10 5 13 18 18
7 6 5 5 7 7 7 8 9 10 11 10 10 10 4 10 4 7 13 18 9 3 3 4 5 5 9 12 11 10 14 16 18 17 14 16 19 12 14 18 17 12 13 15 18
6 6 7 7 8 9 10 11 12 12 11 10 8 4 7 15 9 17 17 11 12 7 7 8 8 7 4 10 9 12 16 15 16 17 16 13 22 29 21 18 19 17 13 13 16
6 8 9 9 10 13 14 15 16 16 14 9 7 3 7 11 17 13 11 12 11 12 12 12 12 11 11 10 14 16 16 17 9 12 17 10 19 21 22 22 22 20 18 15 16
7 9 9 10 12 14 16 18 18 11 8 8 4 2 9 9 7 12 16 10 11 11 8 8 5 8 9 12 13 13 14 16 14 15 15 22 24 22 20 19 24 24 19 16 16
7 9 10 13 16 16 20 19 9 3 1 4 4 3 5 4 11 16 19 15 8 5 6 5 6 9 12 13 15 11 15 14 16 9 15 23 28 18 13 22 22 22 25 20 18
7 9 12 14 16 15 21 5 6 2 5 6 13 10 18 13 18 9 9 4 2 2 5 7 9 17 22 19 22 19 18 19 19 17 15 17 20 26 24 16 17 21 21 23 23
8 11 13 14 11 12 17 6 1 5 10 10 11 9 15 7 8 16 2 4 3 11 8 9 19 20 18 17 20 23 23 23 22 23 15 22 23 20 22 30 24 22 21 21 20
9 12 13 15 5 10 8 5 6 3 4 6 3 4 5 4 12 19 5 3 10 15 17 19 22 12 17 20 20 24 23 23 20 15 15 17 22 23 21 17 25 26 23 21 22
10 13 14 13 2 7 1 15 7 6 3 4 3 1 2 9 7 8 6 5 5 14 14 14 18 18 23 27 20 23 27 21 18 12 10 14 10 20 23 22 18 23 25 24 22
11 13 13 9 3 2 10 11 1 3 5 9 5 5 13 6 11 1 2 6 16 19 12 19 22 24 23 29 23 21 16 18 18 18 17 18 9 9 20 26 25 26 26 23 23
12 13 11 7 3 9 13 4 2 2 4 5 4 13 15 5 5 8 7 7 10 11 14 19 23 21 26 23 23 9 12 9 11 12 11 20 12 11 16 25 21 24 27 26 23
12 13 9 7 5 13 11 2 2 0 6 8 9 16 15 8 10 9 15 11 6 9 14 24 8 6 5 9 13 15 13 5 8 7 10 8 12 18 15 15 24 23 24 26 24
14 11 6 6 10 10 4 1 3 3 4 5 8 16 6 11 7 15 10 8 5 13 15 10 17 3 2 5 5 19 16 7 9 8 6 14 9 10 24 27 13 21 22 24 25
13 5 2 9 10 7 2 3 1 3 4 9 12 5 4 3 7 9 7 6 6 11 9 8 10 7 9 12 5 10 13 21 6 1 5 6 7 11 7 11 15 16 16 19 23
8 2 1 14 8 2 3 2 2 3 4 2 4 2 6 9 10 12 6 5 9 13 18 6 17 11 9 2 12 7 13 9 6 4 7 6 5 6 8 12 7 13 14 18 21
2 1 2 12 3 3 2 2 4 3 3 2 3 6 7 7 11 7 6 11 9 16 20 17 6 15 13 2 7 5 12 9 7 8 4 4 4 4 2 4 6 8 14 17 19
2 1 6 7 2 1 0 2 3 4 2 3 4 5 4 7 8 5 6 6 15 18 14 6 6 8 21 9 1 4 7 14 5 8 6 2 1 9 8 9 10 9 14 17 10
2 2 5 4 2 2 3 4 3 2 2 2 4 3 1 5 7 5 6 7 14 21 11 12 5 9 7 3 8 5 6 3 14 2 3 3 1 9 7 7 7 7 10 10 14
1 1 3 4 1 1 2 2 5 3 4 4 8 6 4 5 6 8 17 9 23 15 16 12 5 6 6 13 13 11 19 11 3 2 1 3 5 13 10 9 7 7 11 12 11
3 1 1 2 2 1 0 1 3 4 3 3 2 2 6 5 14 3 7 22 12 5 16 7 6 11 17 14 6 9 17 18 9 10 6 7 6 11 10 8 9 9 14 15 13
2 3 2 1 2 4 1 2 3 4 3 3 2 7 8 7 10 18 15 15 8 9 16 7 5 14 4 3 6 19 22 17 20 16 11 11 8 11 11 11 14 13 14 16 13
2 3 1 1 1 2 1 2 3 7 3 7 3 12 10 10 11 14 15 16 18 16 12 7 8 6 6 13 13 1 21 11 7 17 11 10 6 9 15 16 16 15 15 18 14
Wind_Direction
335 344 343 344 341 340 340 338 333 330 331 328 327 329 329 325 325 326 307 84 4 339 348 345 3 329 285 252 251 256 240 236 233 234 241 231 241 223 272 220 193 184 266 13 154
339 349 346 326 333 335 333 335 330 329 327 328 328 329 325 328 322 308 157 94 351 341 345 338 339 343 279 252 229 227 235 241 244 236 245 239 234 239 224 215 204 174 108 138 156
345 333 316 337 347 347 336 330 329 331 328 326 326 325 323 331 307 168 85 268 324 330 325 304 298 303 273 259 238 247 243 257 256 247 259 260 241 229 227 234 228 206 169 165 171
17 324 338 3 353 346 337 330 332 332 327 327 326 319 325 330 313 170 268 316 324 323 319 298 270 278 278 260 252 257 260 265 290 290 301 274 251 235 226 218 223 213 174 168 182
51 38 18 0 352 347 339 330 330 327 322 322 318 317 343 300 262 269 292 304 322 333 333 309 273 280 266 276 290 266 272 273 274 282 294 278 258 264 238 228 215 169 166 183 189
50 43 37 6 356 354 343 335 331 328 319 315 312 311 326 286 266 289 310 308 298 276 291 266 282 288 284 269 263 296 295 288 277 268 275 291 276 256 240 248 243 208 185 189 194
47 42 39 20 2 355 348 340 334 323 310 305 301 300 280 263 280 292 298 288 287 247 259 264 277 251 282 279 283 283 285 287 274 260 257 289 275 244 236 242 242 219 210 193 197
44 38 30 21 3 351 343 335 321 301 292 290 285 286 267 275 290 288 295 288 283 269 250 265 267 258 245 264 274 278 277 270 268 248 235 202 259 253 232 232 232 232 222 209 195
40 34 25 12 353 347 344 334 322 307 269 262 257 283 267 300 284 301 291 270 289 272 269 270 224 236 222 239 266 237 258 255 266 249 252 210 248 245 264 226 231 231 226 212 203
35 35 16 0 345 345 348 330 327 347 35 90 97 238 245 323 311 296 288 275 271 286 277 210 213 227 222 220 240 250 241 253 259 259 238 245 244 241 261 240 227 230 226 219 215
30 19 5 352 348 353 358 6 359 238 358 275 290 274 288 302 298 263 295 277 236 225 251 208 225 230 235 227 246 268 272 269 267 264 280 266 269 244 237 246 256 233 231 225 223
15 5 357 345 345 1 33 60 83 301 306 294 271 261 273 276 292 296 237 238 211 271 263 248 249 257 262 257 247 252 257 256 264 261 260 262 270 272 249 234 231 235 230 228 221
8 3 360 346 343 7 60 45 307 257 288 308 262 271 293 216 298 302 206 272 256 270 257 254 257 270 250 247 243 248 247 250 246 269 263 267 269 265 251 237 230 235 232 226 222
5 358 2 352 44 2 38 336 319 188 312 330 343 318 279 306 279 292 245 261 248 274 285 267 268 259 246 251 235 246 238 252 259 260 253 199 264 238 222 225 225 233 227 228 223
355 356 359 7 344 33 313 329 150 212 311 339 301 315 326 303 299 26 323 270 272 272 286 266 288 286 247 234 219 242 250 238 238 237 259 252 267 267 215 219 219 220 224 221 218
345 349 351 351 353 335 326 312 206 278 276 337 312 323 335 317 310 305 310 286 271 286 275 260 272 266 256 251 222 219 241 188 234 229 237 240 221 252 213 215 210 215 214 218 218
337 337 344 352 324 325 324 234 318 256 16 335 327 328 327 322 328 324 322 319 324 316 319 311 269 269 265 209 207 197 171 214 219 202 242 223 216 245 260 232 215 212 213 210 209
329 333 336 12 327 323 314 340 16 40 290 329 316 315 308 358 345 326 313 335 323 333 311 327 316 14 41 250 180 187 186 194 201 203 237 196 231 226 237 239 243 228 218 207 205
331 338 9 340 333 328 300 45 300 232 308 328 313 311 312 338 335 329 317 303 326 349 335 299 273 270 247 230 208 168 209 227 323 139 230 200 243 260 203 208 217 222 219 211 206
334 338 321 343 333 337 68 332 262 251 325 335 312 282 309 340 336 337 315 300 332 334 339 279 294 310 319 139 202 201 185 195 224 250 208 195 224 228 190 201 204 227 218 209 201
5 14 322 343 356 40 70 249 272 256 228 229 269 276 270 320 312 319 280 301 357 335 326 314 268 294 320 339 170 198 189 219 213 242 314 151 217 28 303 278 262 264 232 208 193
77 330 340 358 18 23 6 214 264 273 234 265 248 264 279 315 291 287 264 291 342 340 324 318 292 294 314 311 266 250 187 210 216 189 215 297 146 3 322 294 274 263 231 197 165
69 302 351 21 37 351 325 290 268 268 277 277 279 254 301 294 305 231 291 306 326 333 346 343 303 310 1 334 43 330 294 226 234 273 210 223 106 7 350 336 227 136 101 100 106
92 358 359 53 48 125 342 303 304 251 258 264 279 300 349 281 250 283 302 316 325 313 346 330 281 300 287 290 308 313 333 321 310 274 43 47 334 346 356 15 50 75 97 94 92
22 104 93 332 56 295 139 298 291 323 242 291 289 286 329 288 302 250 294 323 302 304 336 338 282 304 303 288 295 356 17 24 20 8 38 348 11 354 2 43 60 81 89 88 90
137 146 112 128 277 289 239 254 304 332 283 291 269 313 297 268 269 297 309 324 309 311 326 338 292 320 297 299 348 30 12 18 26 6 15 10 44 353 2 57 63 68 86 85 83
138 110 149 52 280 280 236 278 303 336 278 254 309 306 290 271 285 289 285 278 272 291 316 311 319 329 294 329 326 35 10 354 15 28 354 20 351 347 35 44 50 58 73 79 74